View from above orbital plane
|
View from above satellite
|
Ground track
|
The orbit data is extracted from the following two-line orbital elements,
1 25861U 99039B 21018.60815545 .00000012 00000-0 91519-5 0 9991
2 25861 98.2092 31.0277 0015528 182.2518 289.0055 14.78615670159551
Epoch (UTC): | 18 January 2021 14:35:44 |
Eccentricity: | 0.0015528 |
inclination: | 98.2092° |
perigee height: | 623 km |
apogee height: | 644 km |
right ascension of ascending node: | 31.0277° |
argument of perigee: | 182.2518° |
revolutions per day: | 14.78615670 |
mean anomaly at epoch: | 289.0055° |
orbit number at epoch: | 15955 |
The dashed part of the orbit path shows where the satellite is in the earth's shadow,
|
|